Regional Weather Roundup
Issued by NWS

Home | Current Version | Previous Version | Text Only | Print | Product List | Glossary Off
Versions: 1 2 3 4 5 6 7 8 9 10 11 12 13 14 15 16 17 18 19 20 21 22 23 24 25 26 27 28 29 30 31 32 33 34 35 36 37 38 39 40 41 42 43 44 45 46 47 48 49 50

749
ASUS44 KJAN 250603
RWRMS

MISSISSIPPI HOURLY WEATHER ROUNDUP
NATIONAL WEATHER SERVICE JACKSON MS
1200 AM CST TUE NOV 25 2014

NOTE: "FAIR: INDICATES FEW OR NO CLOUDS BELOW 12,000 FEET WITH NO
SIGNIFICANT WEATHER AND/OR OBSTRUCTIONS TO VISIBILITY.

MSZ001>002-007>008-010>013-018>021-025>028-034>036-250700-
NORTHWEST MISSISSIPPI

CITY           SKY/WX    TMP DP  RH WIND       PRES   REMARKS
CLARKSDALE     FAIR      43  36  75 W7        30.11R
CLEVELAND      FAIR      46  35  66 W6        30.11R
GREENWOOD      CLEAR     37  34  89 CALM      30.11S
6HR MIN TEMP:  35; 6HR MAX TEMP:  49;

GREENVILLE     CLEAR     43  33  68 W7        30.11R
6HR MIN TEMP:  43; 6HR MAX TEMP:  53;

GRENADA        FAIR      34  32  93 CALM      30.11S
OLIVE BRANCH   CLEAR     39  34  81 W5        30.08R
OXFORD         FAIR      32  32 100 CALM      30.10S
TUNICA         CLEAR     41  34  75 SW5       30.10R
$$

MSZ003>006-009-014>017-022>024-029>033-037>039-250700-
NORTHEAST MISSISSIPPI

CITY           SKY/WX    TMP DP  RH WIND       PRES   REMARKS
COLUMBUS AFB   CLOUDY    43  39  83 CALM      30.11R
6HR MIN TEMP:  43; 6HR MAX TEMP:  51;

CORINTH        FAIR      36  34  93 CALM      30.07R
GOLDN TRIANGLE CLOUDY    45  36  70 CALM      30.09S
STARKVILLE       N/A     43  37  81 CALM      30.10S
TUPELO         CLEAR     37  34  89 SW5       30.09R WCI  33
6HR MIN TEMP:  37; 6HR MAX TEMP:  51;

$$

MSZ040-058-250700-
CENTRAL MISSISSIPPI

CITY           SKY/WX    TMP DP  RH WIND       PRES   REMARKS
JACKSON INTL   MOCLDY    46  40  79 CALM      30.11S
6HR MIN TEMP:  44; 6HR MAX TEMP:  50;

JACKSON HAWKNS MOCLDY    47  37  68 NW3       30.11R
6HR MIN TEMP:  47; 6HR MAX TEMP:  53;

MERIDIAN KEY   MOCLDY    41  38  89 CALM      30.11S
6HR MIN TEMP:  40; 6HR MAX TEMP:  52;

MERIDIAN NAS   MOCLDY    43  38  82 NW3       30.11S
6HR MIN TEMP:  43; 6HR MAX TEMP:  52;

RAYMOND        FAIR      41  37  87 CALM      30.12R
VICKSBURG      CLEAR     34  33  96 CALM      30.13R
6HR MIN TEMP:  34; 6HR MAX TEMP:  44;

$$

MSZ059>079-250700-
SOUTH MISSISSIPPI

CITY           SKY/WX    TMP DP  RH WIND       PRES   REMARKS
BROOKHAVEN     FAIR      48  39  71 NW5       30.11S
COLUMBIA       FAIR      45  39  81 MISG        N/A
HATTIESBURG    PTCLDY    49  39  68 NW5       30.11R
6HR MIN TEMP:  48; 6HR MAX TEMP:  60;

MCCOMB         CLOUDY    51  36  56 N5        30.10R
6HR MIN TEMP:  48; 6HR MAX TEMP:  53;

NATCHEZ        PTCLDY    46  34  61 N3        30.12F
6HR MIN TEMP:  45; 6HR MAX TEMP:  52;

PINE BELT      PTCLDY    46  36  66 CALM      30.11R
6HR MIN TEMP:  46; 6HR MAX TEMP:  55;

$$

MSZ080>082-250700-
COASTAL MISSISSIPPI

CITY           SKY/WX    TMP DP  RH WIND       PRES   REMARKS
BILOXI         CLOUDY    55  37  50 N13       30.05R
6HR MIN TEMP:  55; 6HR MAX TEMP:  64;

PASCAGOULA     CLOUDY    56  39  53 N12       30.05S
6HR MIN TEMP:  56; 6HR MAX TEMP:  65;

GULFPORT       CLOUDY    55  36  48 N10       30.06R
6HR MIN TEMP:  54; 6HR MAX TEMP:  63;

$$



USA.gov is the U.S. government's official web portal to all federal, state and local government web resources and services.